Weather History for KIWI - November, 2012

Change the Weather History Date:

Sunday, November 4, 2012

  Actual Average Record
Temperature  
Mean Temperature 44 °F -  
Max Temperature 52 °F 48 °F 57 °F (2008)
Min Temperature 37 °F 31 °F 18 °F (2002)
Degree Days  
Heating Degree Days 21    
Moisture  
Dew Point 31 °F    
Average Humidity 59    
Maximum Humidity 71    
Minimum Humidity 44    
Precipitation  
Precipitation 0.00 in - - ()
Sea Level Pressure  
Sea Level Pressure 29.83 in    
Wind  
Wind Speed 4 mph (NW)    
Max Wind Speed 10 mph    
Max Gust Speed 18 mph    
Visibility 10 miles    
Events      
Averages and records for this station are not official NWS values.
T = Trace of Precipitation, MM = Missing Value Source: NWS Daily Summary

Daily Weather History Graph

Daily Weather History Graph

Search for Another Location

Airport or City:

Trip Planner

Search our weather history database for the weather conditions in past years. The results will help you decide how hot, cold, wet, or windy it might be!

Date:

Astronomy

Nov. 04, 2012 Rise Set
Actual Time 6:19 AM EST 4:24 PM EST
Civil Twilight 5:49 AM EST 4:54 PM EST
Nautical Twilight 5:15 AM EST 5:28 PM EST
Astronomical Twilight 4:41 AM EST 6:02 PM EST
Moon 8:57 PM EST (11/4) 11:03 AM EST (11/4)
Length of Visible Light 11h 05m
Length of Day
10h 04m
Waning Gibbous, 72% of the Moon is Illuminated
Nov 4
Waning Gibbous
Nov 6
Last Quarter
Nov 13
New
Nov 20
First Quarter
Nov 28
Full

Hourly Weather History & Observations

Time (EST) Temp. Windchill Dew Point Humidity Pressure Visibility Wind Dir Wind Speed Gust Speed Precip Events Conditions
12:53 AM 44.1 °F - 34.0 °F 68% 29.73 in 10.0 mi Calm Calm - N/A   Overcast
1:53 AM 44.1 °F - 35.1 °F 71% 29.73 in 10.0 mi Calm Calm - 0.00 in   Overcast
1:53 AM 45.0 °F 42.6 °F 33.1 °F 63% 29.74 in 10.0 mi Variable 4.6 mph - N/A   Overcast
2:53 AM 44.1 °F 40.1 °F 34.0 °F 68% 29.75 in 10.0 mi Variable 6.9 mph - N/A   Overcast
3:53 AM 43.0 °F 41.3 °F 34.0 °F 71% 29.76 in 10.0 mi Variable 3.5 mph - N/A   Overcast
4:53 AM 44.1 °F 40.8 °F 33.1 °F 65% 29.77 in 10.0 mi Variable 5.8 mph - N/A   Overcast
5:53 AM 44.1 °F 40.8 °F 33.1 °F 65% 29.78 in 10.0 mi Variable 5.8 mph - N/A   Mostly Cloudy
6:53 AM 43.0 °F 41.3 °F 32.0 °F 65% 29.80 in 10.0 mi NW 3.5 mph - N/A   Clear
7:53 AM 46.0 °F 42.5 °F 32.0 °F 58% 29.82 in 10.0 mi Variable 6.9 mph - N/A   Clear
8:53 AM 46.9 °F - 30.9 °F 54% 29.82 in 10.0 mi NW 9.2 mph 16.1 mph N/A   Clear
9:53 AM 50.0 °F - 30.9 °F 48% 29.82 in 10.0 mi Variable 3.5 mph - N/A   Mostly Cloudy
10:53 AM 51.1 °F - 30.9 °F 46% 29.82 in 10.0 mi West 8.1 mph - N/A   Clear
11:53 AM 51.1 °F - 30.0 °F 44% 29.81 in 10.0 mi WNW 8.1 mph - N/A   Clear
12:53 PM 51.1 °F - 30.0 °F 44% 29.81 in 10.0 mi NNW 8.1 mph - N/A   Clear
1:53 PM 50.0 °F - 28.9 °F 44% 29.82 in 10.0 mi NW 8.1 mph - N/A   Clear
2:53 PM 48.0 °F - 28.0 °F 46% 29.83 in 10.0 mi NW 9.2 mph 18.4 mph N/A   Clear
3:53 PM 45.0 °F 39.7 °F 28.0 °F 52% 29.85 in 10.0 mi NW 10.4 mph 18.4 mph N/A   Clear
4:53 PM 43.0 °F 39.5 °F 28.0 °F 56% 29.87 in 10.0 mi Variable 5.8 mph - N/A   Clear
5:53 PM 41.0 °F 38.0 °F 28.0 °F 60% 29.89 in 10.0 mi Variable 4.6 mph - N/A   Clear
6:53 PM 39.9 °F 37.8 °F 28.9 °F 65% 29.90 in 10.0 mi Variable 3.5 mph - N/A   Clear
7:53 PM 39.0 °F 36.8 °F 28.9 °F 67% 29.92 in 10.0 mi Variable 3.5 mph - N/A   Clear
8:53 PM 39.0 °F - 28.9 °F 67% 29.93 in 10.0 mi Calm Calm - N/A   Clear
9:53 PM 37.9 °F - 28.0 °F 68% 29.94 in 10.0 mi Calm Calm - N/A   Mostly Cloudy
10:53 PM 37.0 °F - 28.0 °F 70% 29.94 in 10.0 mi Calm Calm - N/A   Clear